Location: Clarion
(42.7316°N, 93.7330°W)
Time: 08:40:32
(UTC+00:00)

USA 234 - Pass Details

Date: 22 April 2026
Orbit: 1102 x 1106 km, 123.0° (Epoch: 4 January)

Event Time Altitude Azimuth Distance (km) Brightness Sun altitude
Rises 09:08:10 0° 114° (ESE) 3,910 6.4 -22.0°
Reaches altitude 10° 09:10:40 10° 111° (ESE) 2,955 5.8 -21.7°
Maximum altitude 09:17:04 61° 34° (NNE) 1,241 3.8 -20.8°
Drops below altitude 10° 09:23:29 10° 316° (NW) 2,966 5.5 -19.9°
Sets 09:26:00 0° 313° (NW) 3,926 6.1 -19.6°
